Index of /20260509/WXO-DD/model_caps/3km/12/040
Name Last modified Size Description
Parent Directory -
20260509T12Z_MSC_CAPS_AbsoluteVorticity_IsbL-0250_RLatLon0.03_PT040H.grib2 2026-05-09 18:18 1.2M
20260509T12Z_MSC_CAPS_AbsoluteVorticity_IsbL-0500_RLatLon0.03_PT040H.grib2 2026-05-09 18:18 1.1M
20260509T12Z_MSC_CAPS_AbsoluteVorticity_IsbL-0700_RLatLon0.03_PT040H.grib2 2026-05-09 18:18 1.0M
20260509T12Z_MSC_CAPS_AbsoluteVorticity_IsbL-0850_RLatLon0.03_PT040H.grib2 2026-05-09 18:18 1.6M
20260509T12Z_MSC_CAPS_AbsoluteVorticity_IsbL-1000_RLatLon0.03_PT040H.grib2 2026-05-09 18:18 1.3M
20260509T12Z_MSC_CAPS_AirDensity_AGL-120m_RLatLon0.03_PT040H.grib2 2026-05-09 18:18 1.4M
20260509T12Z_MSC_CAPS_AirDensity_AGL-40m_RLatLon0.03_PT040H.grib2 2026-05-09 18:18 1.4M
20260509T12Z_MSC_CAPS_AirDensity_AGL-80m_RLatLon0.03_PT040H.grib2 2026-05-09 18:18 1.4M
20260509T12Z_MSC_CAPS_AirTemp_AGL-120m_RLatLon0.03_PT040H.grib2 2026-05-09 18:18 1.7M
20260509T12Z_MSC_CAPS_AirTemp_AGL-2m_RLatLon0.03_PT040H.grib2 2026-05-09 18:18 2.1M
20260509T12Z_MSC_CAPS_AirTemp_AGL-40m_RLatLon0.03_PT040H.grib2 2026-05-09 18:18 1.8M
20260509T12Z_MSC_CAPS_AirTemp_AGL-80m_RLatLon0.03_PT040H.grib2 2026-05-09 18:18 1.8M
20260509T12Z_MSC_CAPS_AirTemp_IsbL-0050_RLatLon0.03_PT040H.grib2 2026-05-09 18:18 693K
20260509T12Z_MSC_CAPS_AirTemp_IsbL-0100_RLatLon0.03_PT040H.grib2 2026-05-09 18:18 777K
20260509T12Z_MSC_CAPS_AirTemp_IsbL-0150_RLatLon0.03_PT040H.grib2 2026-05-09 18:18 735K
20260509T12Z_MSC_CAPS_AirTemp_IsbL-0175_RLatLon0.03_PT040H.grib2 2026-05-09 18:18 761K
20260509T12Z_MSC_CAPS_AirTemp_IsbL-0200_RLatLon0.03_PT040H.grib2 2026-05-09 18:18 791K
20260509T12Z_MSC_CAPS_AirTemp_IsbL-0225_RLatLon0.03_PT040H.grib2 2026-05-09 18:18 803K
20260509T12Z_MSC_CAPS_AirTemp_IsbL-0250_RLatLon0.03_PT040H.grib2 2026-05-09 18:18 800K
20260509T12Z_MSC_CAPS_AirTemp_IsbL-0275_RLatLon0.03_PT040H.grib2 2026-05-09 18:18 1.0M
20260509T12Z_MSC_CAPS_AirTemp_IsbL-0300_RLatLon0.03_PT040H.grib2 2026-05-09 18:18 1.0M
20260509T12Z_MSC_CAPS_AirTemp_IsbL-0350_RLatLon0.03_PT040H.grib2 2026-05-09 18:18 755K
20260509T12Z_MSC_CAPS_AirTemp_IsbL-0400_RLatLon0.03_PT040H.grib2 2026-05-09 18:18 763K
20260509T12Z_MSC_CAPS_AirTemp_IsbL-0450_RLatLon0.03_PT040H.grib2 2026-05-09 18:18 779K
20260509T12Z_MSC_CAPS_AirTemp_IsbL-0500_RLatLon0.03_PT040H.grib2 2026-05-09 18:18 797K
20260509T12Z_MSC_CAPS_AirTemp_IsbL-0550_RLatLon0.03_PT040H.grib2 2026-05-09 18:18 808K
20260509T12Z_MSC_CAPS_AirTemp_IsbL-0600_RLatLon0.03_PT040H.grib2 2026-05-09 18:18 823K
20260509T12Z_MSC_CAPS_AirTemp_IsbL-0650_RLatLon0.03_PT040H.grib2 2026-05-09 18:18 847K
20260509T12Z_MSC_CAPS_AirTemp_IsbL-0700_RLatLon0.03_PT040H.grib2 2026-05-09 18:18 872K
20260509T12Z_MSC_CAPS_AirTemp_IsbL-0750_RLatLon0.03_PT040H.grib2 2026-05-09 18:18 898K
20260509T12Z_MSC_CAPS_AirTemp_IsbL-0800_RLatLon0.03_PT040H.grib2 2026-05-09 18:18 933K
20260509T12Z_MSC_CAPS_AirTemp_IsbL-0850_RLatLon0.03_PT040H.grib2 2026-05-09 18:18 1.0M
20260509T12Z_MSC_CAPS_AirTemp_IsbL-0875_RLatLon0.03_PT040H.grib2 2026-05-09 18:18 1.0M
20260509T12Z_MSC_CAPS_AirTemp_IsbL-0900_RLatLon0.03_PT040H.grib2 2026-05-09 18:18 1.1M
20260509T12Z_MSC_CAPS_AirTemp_IsbL-0925_RLatLon0.03_PT040H.grib2 2026-05-09 18:18 1.1M
20260509T12Z_MSC_CAPS_AirTemp_IsbL-0950_RLatLon0.03_PT040H.grib2 2026-05-09 18:18 1.1M
20260509T12Z_MSC_CAPS_AirTemp_IsbL-0970_RLatLon0.03_PT040H.grib2 2026-05-09 18:18 1.1M
20260509T12Z_MSC_CAPS_AirTemp_IsbL-0985_RLatLon0.03_PT040H.grib2 2026-05-09 18:18 1.1M
20260509T12Z_MSC_CAPS_AirTemp_IsbL-1000_RLatLon0.03_PT040H.grib2 2026-05-09 18:18 1.1M
20260509T12Z_MSC_CAPS_AirTemp_IsbL-1015_RLatLon0.03_PT040H.grib2 2026-05-09 18:18 1.1M
20260509T12Z_MSC_CAPS_Albedo_Sfc_RLatLon0.03_PT040H.grib2 2026-05-09 18:18 2.7M
20260509T12Z_MSC_CAPS_CAPE_Sfc_RLatLon0.03_PT040H.grib2 2026-05-09 18:18 237K
20260509T12Z_MSC_CAPS_CloudWater_EAtm_RLatLon0.03_PT040H.grib2 2026-05-09 18:18 1.5M
20260509T12Z_MSC_CAPS_ConvectivePrecip-Accum_Sfc_RLatLon0.03_PT040H.grib2 2026-05-09 18:18 4.8M
20260509T12Z_MSC_CAPS_DewPointDepression_AGL-120m_RLatLon0.03_PT040H.grib2 2026-05-09 18:18 2.1M
20260509T12Z_MSC_CAPS_DewPointDepression_AGL-2m_RLatLon0.03_PT040H.grib2 2026-05-09 18:18 2.1M
20260509T12Z_MSC_CAPS_DewPointDepression_AGL-40m_RLatLon0.03_PT040H.grib2 2026-05-09 18:18 2.1M
20260509T12Z_MSC_CAPS_DewPointDepression_AGL-80m_RLatLon0.03_PT040H.grib2 2026-05-09 18:18 2.1M
20260509T12Z_MSC_CAPS_DewPointDepression_IsbL-0050_RLatLon0.03_PT040H.grib2 2026-05-09 18:18 193
20260509T12Z_MSC_CAPS_DewPointDepression_IsbL-0100_RLatLon0.03_PT040H.grib2 2026-05-09 18:18 19K
20260509T12Z_MSC_CAPS_DewPointDepression_IsbL-0150_RLatLon0.03_PT040H.grib2 2026-05-09 18:18 55K
20260509T12Z_MSC_CAPS_DewPointDepression_IsbL-0175_RLatLon0.03_PT040H.grib2 2026-05-09 18:18 119K
20260509T12Z_MSC_CAPS_DewPointDepression_IsbL-0200_RLatLon0.03_PT040H.grib2 2026-05-09 18:18 359K
20260509T12Z_MSC_CAPS_DewPointDepression_IsbL-0225_RLatLon0.03_PT040H.grib2 2026-05-09 18:18 685K
20260509T12Z_MSC_CAPS_DewPointDepression_IsbL-0250_RLatLon0.03_PT040H.grib2 2026-05-09 18:18 923K
20260509T12Z_MSC_CAPS_DewPointDepression_IsbL-0275_RLatLon0.03_PT040H.grib2 2026-05-09 18:18 1.0M
20260509T12Z_MSC_CAPS_DewPointDepression_IsbL-0300_RLatLon0.03_PT040H.grib2 2026-05-09 18:18 1.1M
20260509T12Z_MSC_CAPS_DewPointDepression_IsbL-0350_RLatLon0.03_PT040H.grib2 2026-05-09 18:18 1.1M
20260509T12Z_MSC_CAPS_DewPointDepression_IsbL-0400_RLatLon0.03_PT040H.grib2 2026-05-09 18:18 1.2M
20260509T12Z_MSC_CAPS_DewPointDepression_IsbL-0450_RLatLon0.03_PT040H.grib2 2026-05-09 18:18 1.2M
20260509T12Z_MSC_CAPS_DewPointDepression_IsbL-0500_RLatLon0.03_PT040H.grib2 2026-05-09 18:18 1.3M
20260509T12Z_MSC_CAPS_DewPointDepression_IsbL-0550_RLatLon0.03_PT040H.grib2 2026-05-09 18:18 1.3M
20260509T12Z_MSC_CAPS_DewPointDepression_IsbL-0600_RLatLon0.03_PT040H.grib2 2026-05-09 18:18 1.3M
20260509T12Z_MSC_CAPS_DewPointDepression_IsbL-0650_RLatLon0.03_PT040H.grib2 2026-05-09 18:18 1.3M
20260509T12Z_MSC_CAPS_DewPointDepression_IsbL-0700_RLatLon0.03_PT040H.grib2 2026-05-09 18:18 1.3M
20260509T12Z_MSC_CAPS_DewPointDepression_IsbL-0750_RLatLon0.03_PT040H.grib2 2026-05-09 18:18 1.3M
20260509T12Z_MSC_CAPS_DewPointDepression_IsbL-0800_RLatLon0.03_PT040H.grib2 2026-05-09 18:18 1.4M
20260509T12Z_MSC_CAPS_DewPointDepression_IsbL-0850_RLatLon0.03_PT040H.grib2 2026-05-09 18:18 1.3M
20260509T12Z_MSC_CAPS_DewPointDepression_IsbL-0875_RLatLon0.03_PT040H.grib2 2026-05-09 18:18 1.3M
20260509T12Z_MSC_CAPS_DewPointDepression_IsbL-0900_RLatLon0.03_PT040H.grib2 2026-05-09 18:18 1.3M
20260509T12Z_MSC_CAPS_DewPointDepression_IsbL-0925_RLatLon0.03_PT040H.grib2 2026-05-09 18:18 1.3M
20260509T12Z_MSC_CAPS_DewPointDepression_IsbL-0950_RLatLon0.03_PT040H.grib2 2026-05-09 18:18 1.3M
20260509T12Z_MSC_CAPS_DewPointDepression_IsbL-0970_RLatLon0.03_PT040H.grib2 2026-05-09 18:18 1.3M
20260509T12Z_MSC_CAPS_DewPointDepression_IsbL-0985_RLatLon0.03_PT040H.grib2 2026-05-09 18:18 1.3M
20260509T12Z_MSC_CAPS_DewPointDepression_IsbL-1000_RLatLon0.03_PT040H.grib2 2026-05-09 18:18 1.3M
20260509T12Z_MSC_CAPS_DewPointDepression_IsbL-1015_RLatLon0.03_PT040H.grib2 2026-05-09 18:18 1.3M
20260509T12Z_MSC_CAPS_DewPoint_AGL-120m_RLatLon0.03_PT040H.grib2 2026-05-09 18:18 3.6M
20260509T12Z_MSC_CAPS_DewPoint_AGL-2m_RLatLon0.03_PT040H.grib2 2026-05-09 18:18 2.1M
20260509T12Z_MSC_CAPS_DewPoint_AGL-40m_RLatLon0.03_PT040H.grib2 2026-05-09 18:18 3.7M
20260509T12Z_MSC_CAPS_DewPoint_AGL-80m_RLatLon0.03_PT040H.grib2 2026-05-09 18:18 3.6M
20260509T12Z_MSC_CAPS_DownwardLongwaveRadiationFlux-Accum_Sfc_RLatLon0.03_PT040H.grib2 2026-05-09 18:18 2.6M
20260509T12Z_MSC_CAPS_DownwardShortwaveRadiationFlux-Accum_NTAtm_RLatLon0.03_PT040H.grib2 2026-05-09 18:18 488K
20260509T12Z_MSC_CAPS_DownwardShortwaveRadiationFlux-Accum_Sfc_RLatLon0.03_PT040H.grib2 2026-05-09 18:18 3.0M
20260509T12Z_MSC_CAPS_FreezingRain-Accum_Sfc_RLatLon0.03_PT040H.grib2 2026-05-09 18:18 1.1M
20260509T12Z_MSC_CAPS_GeopotentialHeight_IsbL-0050_RLatLon0.03_PT040H.grib2 2026-05-09 18:18 821K
20260509T12Z_MSC_CAPS_GeopotentialHeight_IsbL-0100_RLatLon0.03_PT040H.grib2 2026-05-09 18:18 801K
20260509T12Z_MSC_CAPS_GeopotentialHeight_IsbL-0150_RLatLon0.03_PT040H.grib2 2026-05-09 18:18 756K
20260509T12Z_MSC_CAPS_GeopotentialHeight_IsbL-0175_RLatLon0.03_PT040H.grib2 2026-05-09 18:18 598K
20260509T12Z_MSC_CAPS_GeopotentialHeight_IsbL-0200_RLatLon0.03_PT040H.grib2 2026-05-09 18:18 720K
20260509T12Z_MSC_CAPS_GeopotentialHeight_IsbL-0225_RLatLon0.03_PT040H.grib2 2026-05-09 18:18 746K
20260509T12Z_MSC_CAPS_GeopotentialHeight_IsbL-0250_RLatLon0.03_PT040H.grib2 2026-05-09 18:18 763K
20260509T12Z_MSC_CAPS_GeopotentialHeight_IsbL-0275_RLatLon0.03_PT040H.grib2 2026-05-09 18:18 775K
20260509T12Z_MSC_CAPS_GeopotentialHeight_IsbL-0300_RLatLon0.03_PT040H.grib2 2026-05-09 18:18 782K
20260509T12Z_MSC_CAPS_GeopotentialHeight_IsbL-0350_RLatLon0.03_PT040H.grib2 2026-05-09 18:18 779K
20260509T12Z_MSC_CAPS_GeopotentialHeight_IsbL-0400_RLatLon0.03_PT040H.grib2 2026-05-09 18:18 775K
20260509T12Z_MSC_CAPS_GeopotentialHeight_IsbL-0450_RLatLon0.03_PT040H.grib2 2026-05-09 18:18 763K
20260509T12Z_MSC_CAPS_GeopotentialHeight_IsbL-0500_RLatLon0.03_PT040H.grib2 2026-05-09 18:18 755K
20260509T12Z_MSC_CAPS_GeopotentialHeight_IsbL-0550_RLatLon0.03_PT040H.grib2 2026-05-09 18:18 636K
20260509T12Z_MSC_CAPS_GeopotentialHeight_IsbL-0600_RLatLon0.03_PT040H.grib2 2026-05-09 18:18 634K
20260509T12Z_MSC_CAPS_GeopotentialHeight_IsbL-0650_RLatLon0.03_PT040H.grib2 2026-05-09 18:18 635K
20260509T12Z_MSC_CAPS_GeopotentialHeight_IsbL-0700_RLatLon0.03_PT040H.grib2 2026-05-09 18:18 812K
20260509T12Z_MSC_CAPS_GeopotentialHeight_IsbL-0750_RLatLon0.03_PT040H.grib2 2026-05-09 18:18 811K
20260509T12Z_MSC_CAPS_GeopotentialHeight_IsbL-0800_RLatLon0.03_PT040H.grib2 2026-05-09 18:18 818K
20260509T12Z_MSC_CAPS_GeopotentialHeight_IsbL-0850_RLatLon0.03_PT040H.grib2 2026-05-09 18:18 829K
20260509T12Z_MSC_CAPS_GeopotentialHeight_IsbL-0875_RLatLon0.03_PT040H.grib2 2026-05-09 18:18 820K
20260509T12Z_MSC_CAPS_GeopotentialHeight_IsbL-0900_RLatLon0.03_PT040H.grib2 2026-05-09 18:18 843K
20260509T12Z_MSC_CAPS_GeopotentialHeight_IsbL-0925_RLatLon0.03_PT040H.grib2 2026-05-09 18:18 833K
20260509T12Z_MSC_CAPS_GeopotentialHeight_IsbL-0950_RLatLon0.03_PT040H.grib2 2026-05-09 18:18 848K
20260509T12Z_MSC_CAPS_GeopotentialHeight_IsbL-0970_RLatLon0.03_PT040H.grib2 2026-05-09 18:18 940K
20260509T12Z_MSC_CAPS_GeopotentialHeight_IsbL-0985_RLatLon0.03_PT040H.grib2 2026-05-09 18:18 948K
20260509T12Z_MSC_CAPS_GeopotentialHeight_IsbL-1000_RLatLon0.03_PT040H.grib2 2026-05-09 18:18 957K
20260509T12Z_MSC_CAPS_GeopotentialHeight_IsbL-1015_RLatLon0.03_PT040H.grib2 2026-05-09 18:18 969K
20260509T12Z_MSC_CAPS_GeopotentialHeight_Sfc_RLatLon0.03_PT040H.grib2 2026-05-09 18:18 1.0M
20260509T12Z_MSC_CAPS_IcePellets-Accum_Sfc_RLatLon0.03_PT040H.grib2 2026-05-09 18:18 55K
20260509T12Z_MSC_CAPS_LatentHeatNetFlux_Sfc_RLatLon0.03_PT040H.grib2 2026-05-09 18:18 1.9M
20260509T12Z_MSC_CAPS_LiftedIndex-MU-VT_IsbL-0500_RLatLon0.03_PT040H.grib2 2026-05-09 18:18 3.3M
20260509T12Z_MSC_CAPS_MixedLayerThickness_Sfc_RLatLon0.03_PT040H.nc 2026-05-09 18:12 16M
20260509T12Z_MSC_CAPS_NetLongwaveRadiationFlux-Accum_Sfc_RLatLon0.03_PT040H.grib2 2026-05-09 18:18 2.8M
20260509T12Z_MSC_CAPS_NetShortwaveRadiationFlux-Accum_Sfc_RLatLon0.03_PT040H.grib2 2026-05-09 18:18 2.9M
20260509T12Z_MSC_CAPS_PlanetaryBoundaryLayerHeight_Sfc_RLatLon0.03_PT040H.grib2 2026-05-09 18:18 3.0M
20260509T12Z_MSC_CAPS_Precip-Accum_Sfc_RLatLon0.03_PT040H.grib2 2026-05-09 18:18 5.2M
20260509T12Z_MSC_CAPS_PrecipRate_Sfc_RLatLon0.03_PT040H.grib2 2026-05-09 18:18 479K
20260509T12Z_MSC_CAPS_PrecipType-Instant_Sfc_RLatLon0.03_PT040H.grib2 2026-05-09 18:18 2.1M
20260509T12Z_MSC_CAPS_Pressure_MSL_RLatLon0.03_PT040H.grib2 2026-05-09 18:18 760K
20260509T12Z_MSC_CAPS_Pressure_Sfc_RLatLon0.03_PT040H.grib2 2026-05-09 18:18 1.2M
20260509T12Z_MSC_CAPS_RadiativeTemp_Sfc_RLatLon0.03_PT040H.grib2 2026-05-09 18:18 2.4M
20260509T12Z_MSC_CAPS_Rain-Accum_Sfc_RLatLon0.03_PT040H.grib2 2026-05-09 18:18 3.0M
20260509T12Z_MSC_CAPS_RelativeHumidity_AGL-120m_RLatLon0.03_PT040H.grib2 2026-05-09 18:18 2.8M
20260509T12Z_MSC_CAPS_RelativeHumidity_AGL-2m_RLatLon0.03_PT040H.grib2 2026-05-09 18:18 2.9M
20260509T12Z_MSC_CAPS_RelativeHumidity_AGL-40m_RLatLon0.03_PT040H.grib2 2026-05-09 18:18 2.9M
20260509T12Z_MSC_CAPS_RelativeHumidity_AGL-80m_RLatLon0.03_PT040H.grib2 2026-05-09 18:18 2.8M
20260509T12Z_MSC_CAPS_RelativeHumidity_IsbL-0050_RLatLon0.03_PT040H.grib2 2026-05-09 18:18 827K
20260509T12Z_MSC_CAPS_RelativeHumidity_IsbL-0100_RLatLon0.03_PT040H.grib2 2026-05-09 18:18 1.0M
20260509T12Z_MSC_CAPS_RelativeHumidity_IsbL-0150_RLatLon0.03_PT040H.grib2 2026-05-09 18:18 524K
20260509T12Z_MSC_CAPS_RelativeHumidity_IsbL-0175_RLatLon0.03_PT040H.grib2 2026-05-09 18:18 402K
20260509T12Z_MSC_CAPS_RelativeHumidity_IsbL-0200_RLatLon0.03_PT040H.grib2 2026-05-09 18:18 609K
20260509T12Z_MSC_CAPS_RelativeHumidity_IsbL-0225_RLatLon0.03_PT040H.grib2 2026-05-09 18:18 874K
20260509T12Z_MSC_CAPS_RelativeHumidity_IsbL-0250_RLatLon0.03_PT040H.grib2 2026-05-09 18:18 1.1M
20260509T12Z_MSC_CAPS_RelativeHumidity_IsbL-0275_RLatLon0.03_PT040H.grib2 2026-05-09 18:18 1.5M
20260509T12Z_MSC_CAPS_RelativeHumidity_IsbL-0300_RLatLon0.03_PT040H.grib2 2026-05-09 18:18 1.6M
20260509T12Z_MSC_CAPS_RelativeHumidity_IsbL-0350_RLatLon0.03_PT040H.grib2 2026-05-09 18:18 1.8M
20260509T12Z_MSC_CAPS_RelativeHumidity_IsbL-0400_RLatLon0.03_PT040H.grib2 2026-05-09 18:18 1.9M
20260509T12Z_MSC_CAPS_RelativeHumidity_IsbL-0450_RLatLon0.03_PT040H.grib2 2026-05-09 18:18 2.0M
20260509T12Z_MSC_CAPS_RelativeHumidity_IsbL-0500_RLatLon0.03_PT040H.grib2 2026-05-09 18:18 2.2M
20260509T12Z_MSC_CAPS_RelativeHumidity_IsbL-0550_RLatLon0.03_PT040H.grib2 2026-05-09 18:18 2.2M
20260509T12Z_MSC_CAPS_RelativeHumidity_IsbL-0600_RLatLon0.03_PT040H.grib2 2026-05-09 18:18 2.1M
20260509T12Z_MSC_CAPS_RelativeHumidity_IsbL-0650_RLatLon0.03_PT040H.grib2 2026-05-09 18:18 2.3M
20260509T12Z_MSC_CAPS_RelativeHumidity_IsbL-0700_RLatLon0.03_PT040H.grib2 2026-05-09 18:18 2.3M
20260509T12Z_MSC_CAPS_RelativeHumidity_IsbL-0750_RLatLon0.03_PT040H.grib2 2026-05-09 18:18 2.3M
20260509T12Z_MSC_CAPS_RelativeHumidity_IsbL-0800_RLatLon0.03_PT040H.grib2 2026-05-09 18:18 2.3M
20260509T12Z_MSC_CAPS_RelativeHumidity_IsbL-0850_RLatLon0.03_PT040H.grib2 2026-05-09 18:18 2.4M
20260509T12Z_MSC_CAPS_RelativeHumidity_IsbL-0875_RLatLon0.03_PT040H.grib2 2026-05-09 18:18 2.4M
20260509T12Z_MSC_CAPS_RelativeHumidity_IsbL-0900_RLatLon0.03_PT040H.grib2 2026-05-09 18:18 2.5M
20260509T12Z_MSC_CAPS_RelativeHumidity_IsbL-0925_RLatLon0.03_PT040H.grib2 2026-05-09 18:18 2.6M
20260509T12Z_MSC_CAPS_RelativeHumidity_IsbL-0950_RLatLon0.03_PT040H.grib2 2026-05-09 18:18 2.6M
20260509T12Z_MSC_CAPS_RelativeHumidity_IsbL-0970_RLatLon0.03_PT040H.grib2 2026-05-09 18:18 2.7M
20260509T12Z_MSC_CAPS_RelativeHumidity_IsbL-0985_RLatLon0.03_PT040H.grib2 2026-05-09 18:18 2.8M
20260509T12Z_MSC_CAPS_RelativeHumidity_IsbL-1000_RLatLon0.03_PT040H.grib2 2026-05-09 18:18 2.9M
20260509T12Z_MSC_CAPS_RelativeHumidity_IsbL-1015_RLatLon0.03_PT040H.grib2 2026-05-09 18:18 2.8M
20260509T12Z_MSC_CAPS_Runoff-Accum_Sfc_RLatLon0.03_PT040H.grib2 2026-05-09 18:18 303K
20260509T12Z_MSC_CAPS_SeaIceAreaFraction_Sfc_RLatLon0.03_PT040H.nc 2026-05-09 18:12 15M
20260509T12Z_MSC_CAPS_SeaIceCompressiveStrength_Sfc_RLatLon0.03_PT040H.nc 2026-05-09 18:12 15M
20260509T12Z_MSC_CAPS_SeaIceDivergence_Sfc_RLatLon0.03_PT040H.nc 2026-05-09 18:12 15M
20260509T12Z_MSC_CAPS_SeaIceInternalPressure_Sfc_RLatLon0.03_PT040H.nc 2026-05-09 18:12 15M
20260509T12Z_MSC_CAPS_SeaIceShear_Sfc_RLatLon0.03_PT040H.nc 2026-05-09 18:12 15M
20260509T12Z_MSC_CAPS_SeaIceSnowTemp_Sfc_RLatLon0.03_PT040H.nc 2026-05-09 18:12 14M
20260509T12Z_MSC_CAPS_SeaIceSnowVolume_Sfc_RLatLon0.03_PT040H.nc 2026-05-09 18:12 15M
20260509T12Z_MSC_CAPS_SeaIceVelocityX_Sfc_RLatLon0.03_PT040H.nc 2026-05-09 18:12 15M
20260509T12Z_MSC_CAPS_SeaIceVelocityY_Sfc_RLatLon0.03_PT040H.nc 2026-05-09 18:12 15M
20260509T12Z_MSC_CAPS_SeaIceVolume_Sfc_RLatLon0.03_PT040H.nc 2026-05-09 18:12 15M
20260509T12Z_MSC_CAPS_SeaSurfaceHeight_Sfc_RLatLon0.03_PT040H.nc 2026-05-09 18:12 16M
20260509T12Z_MSC_CAPS_SeaWaterSalinity_DBS-0.5m_RLatLon0.03_PT040H.nc 2026-05-09 18:12 16M
20260509T12Z_MSC_CAPS_SeaWaterSalinity_DBS-all_RLatLon0.03_PT040H.nc 2026-05-09 18:12 107M
20260509T12Z_MSC_CAPS_SeaWaterTemp_DBS-0.5m_RLatLon0.03_PT040H.nc 2026-05-09 18:12 15M
20260509T12Z_MSC_CAPS_SeaWaterTemp_DBS-all_RLatLon0.03_PT040H.nc 2026-05-09 18:12 88M
20260509T12Z_MSC_CAPS_SeaWaterVelocityX_DBS-0.5m_RLatLon0.03_PT040H.nc 2026-05-09 18:12 17M
20260509T12Z_MSC_CAPS_SeaWaterVelocityX_DBS-all_RLatLon0.03_PT040H.nc 2026-05-09 18:12 210M
20260509T12Z_MSC_CAPS_SeaWaterVelocityY_DBS-0.5m_RLatLon0.03_PT040H.nc 2026-05-09 18:12 18M
20260509T12Z_MSC_CAPS_SeaWaterVelocityY_DBS-all_RLatLon0.03_PT040H.nc 2026-05-09 18:12 219M
20260509T12Z_MSC_CAPS_SensibleHeatNetFlux_Sfc_RLatLon0.03_PT040H.grib2 2026-05-09 18:18 2.1M
20260509T12Z_MSC_CAPS_ShowalterIndex_IsbL-0500_RLatLon0.03_PT040H.grib2 2026-05-09 18:18 4.3M
20260509T12Z_MSC_CAPS_Snow-Accum_Sfc_RLatLon0.03_PT040H.grib2 2026-05-09 18:18 3.7M
20260509T12Z_MSC_CAPS_SnowDensity_Sfc_RLatLon0.03_PT040H.grib2 2026-05-09 18:18 1.3M
20260509T12Z_MSC_CAPS_SnowDepthWaterEquivalent_Sfc_RLatLon0.03_PT040H.grib2 2026-05-09 18:18 641K
20260509T12Z_MSC_CAPS_SnowDepth_Sfc_RLatLon0.03_PT040H.grib2 2026-05-09 18:18 1.1M
20260509T12Z_MSC_CAPS_SoilTemp_DBS-0to10cm_RLatLon0.03_PT040H.grib2 2026-05-09 18:18 1.7M
20260509T12Z_MSC_CAPS_SoilTemp_Sfc_RLatLon0.03_PT040H.grib2 2026-05-09 18:18 1.8M
20260509T12Z_MSC_CAPS_SoilVolumetricIceContent_Sfc_RLatLon0.03_PT040H.grib2 2026-05-09 18:18 1.3M
20260509T12Z_MSC_CAPS_SoilVolumetricWaterContent_DBS-0to10cm_RLatLon0.03_PT040H.grib2 2026-05-09 18:18 1.4M
20260509T12Z_MSC_CAPS_SoilVolumetricWaterContent_DBS-0to1cm_RLatLon0.03_PT040H.grib2 2026-05-09 18:18 1.8M
20260509T12Z_MSC_CAPS_SpecificHumidity_AGL-120m_RLatLon0.03_PT040H.grib2 2026-05-09 18:18 1.8M
20260509T12Z_MSC_CAPS_SpecificHumidity_AGL-2m_RLatLon0.03_PT040H.grib2 2026-05-09 18:18 2.1M
20260509T12Z_MSC_CAPS_SpecificHumidity_AGL-40m_RLatLon0.03_PT040H.grib2 2026-05-09 18:18 1.9M
20260509T12Z_MSC_CAPS_SpecificHumidity_AGL-80m_RLatLon0.03_PT040H.grib2 2026-05-09 18:18 1.9M
20260509T12Z_MSC_CAPS_SpecificHumidity_IsbL-0050_RLatLon0.03_PT040H.grib2 2026-05-09 18:18 916K
20260509T12Z_MSC_CAPS_SpecificHumidity_IsbL-0100_RLatLon0.03_PT040H.grib2 2026-05-09 18:18 936K
20260509T12Z_MSC_CAPS_SpecificHumidity_IsbL-0150_RLatLon0.03_PT040H.grib2 2026-05-09 18:18 970K
20260509T12Z_MSC_CAPS_SpecificHumidity_IsbL-0175_RLatLon0.03_PT040H.grib2 2026-05-09 18:18 829K
20260509T12Z_MSC_CAPS_SpecificHumidity_IsbL-0200_RLatLon0.03_PT040H.grib2 2026-05-09 18:18 887K
20260509T12Z_MSC_CAPS_SpecificHumidity_IsbL-0225_RLatLon0.03_PT040H.grib2 2026-05-09 18:18 1.1M
20260509T12Z_MSC_CAPS_SpecificHumidity_IsbL-0250_RLatLon0.03_PT040H.grib2 2026-05-09 18:18 1.1M
20260509T12Z_MSC_CAPS_SpecificHumidity_IsbL-0275_RLatLon0.03_PT040H.grib2 2026-05-09 18:18 1.1M
20260509T12Z_MSC_CAPS_SpecificHumidity_IsbL-0300_RLatLon0.03_PT040H.grib2 2026-05-09 18:18 1.0M
20260509T12Z_MSC_CAPS_SpecificHumidity_IsbL-0350_RLatLon0.03_PT040H.grib2 2026-05-09 18:18 1.2M
20260509T12Z_MSC_CAPS_SpecificHumidity_IsbL-0400_RLatLon0.03_PT040H.grib2 2026-05-09 18:18 1.3M
20260509T12Z_MSC_CAPS_SpecificHumidity_IsbL-0450_RLatLon0.03_PT040H.grib2 2026-05-09 18:18 1.2M
20260509T12Z_MSC_CAPS_SpecificHumidity_IsbL-0500_RLatLon0.03_PT040H.grib2 2026-05-09 18:18 1.6M
20260509T12Z_MSC_CAPS_SpecificHumidity_IsbL-0550_RLatLon0.03_PT040H.grib2 2026-05-09 18:18 1.4M
20260509T12Z_MSC_CAPS_SpecificHumidity_IsbL-0600_RLatLon0.03_PT040H.grib2 2026-05-09 18:18 1.5M
20260509T12Z_MSC_CAPS_SpecificHumidity_IsbL-0650_RLatLon0.03_PT040H.grib2 2026-05-09 18:18 1.6M
20260509T12Z_MSC_CAPS_SpecificHumidity_IsbL-0700_RLatLon0.03_PT040H.grib2 2026-05-09 18:18 1.7M
20260509T12Z_MSC_CAPS_SpecificHumidity_IsbL-0750_RLatLon0.03_PT040H.grib2 2026-05-09 18:18 1.5M
20260509T12Z_MSC_CAPS_SpecificHumidity_IsbL-0800_RLatLon0.03_PT040H.grib2 2026-05-09 18:18 1.6M
20260509T12Z_MSC_CAPS_SpecificHumidity_IsbL-0850_RLatLon0.03_PT040H.grib2 2026-05-09 18:18 1.7M
20260509T12Z_MSC_CAPS_SpecificHumidity_IsbL-0875_RLatLon0.03_PT040H.grib2 2026-05-09 18:18 1.8M
20260509T12Z_MSC_CAPS_SpecificHumidity_IsbL-0900_RLatLon0.03_PT040H.grib2 2026-05-09 18:18 1.9M
20260509T12Z_MSC_CAPS_SpecificHumidity_IsbL-0925_RLatLon0.03_PT040H.grib2 2026-05-09 18:18 1.9M
20260509T12Z_MSC_CAPS_SpecificHumidity_IsbL-0950_RLatLon0.03_PT040H.grib2 2026-05-09 18:18 2.0M
20260509T12Z_MSC_CAPS_SpecificHumidity_IsbL-0970_RLatLon0.03_PT040H.grib2 2026-05-09 18:18 2.1M
20260509T12Z_MSC_CAPS_SpecificHumidity_IsbL-0985_RLatLon0.03_PT040H.grib2 2026-05-09 18:18 2.1M
20260509T12Z_MSC_CAPS_SpecificHumidity_IsbL-1000_RLatLon0.03_PT040H.grib2 2026-05-09 18:18 2.2M
20260509T12Z_MSC_CAPS_SpecificHumidity_IsbL-1015_RLatLon0.03_PT040H.grib2 2026-05-09 18:18 2.2M
20260509T12Z_MSC_CAPS_SpecificHumidity_Sfc_RLatLon0.03_PT040H.grib2 2026-05-09 18:18 2.1M
20260509T12Z_MSC_CAPS_StormRelativeHelicity_Sfc_RLatLon0.03_PT040H.grib2 2026-05-09 18:18 3.1M
20260509T12Z_MSC_CAPS_Thickness_IsbL-1000to0500_RLatLon0.03_PT040H.grib2 2026-05-09 18:18 637K
20260509T12Z_MSC_CAPS_TotalCloudCover_Sfc_RLatLon0.03_PT040H.grib2 2026-05-09 18:18 3.7M
20260509T12Z_MSC_CAPS_TurboclineDepth_Sfc_RLatLon0.03_PT040H.nc 2026-05-09 18:12 16M
20260509T12Z_MSC_CAPS_UpwardLongwaveRadiationFlux_NTAtm_RLatLon0.03_PT040H.grib2 2026-05-09 18:18 2.9M
20260509T12Z_MSC_CAPS_UpwardShortwaveRadiationFlux_NTAtm_RLatLon0.03_PT040H.grib2 2026-05-09 18:18 2.0M
20260509T12Z_MSC_CAPS_VerticalVelocity_IsbL-0250_RLatLon0.03_PT040H.grib2 2026-05-09 18:18 1.1M
20260509T12Z_MSC_CAPS_VerticalVelocity_IsbL-0500_RLatLon0.03_PT040H.grib2 2026-05-09 18:18 891K
20260509T12Z_MSC_CAPS_VerticalVelocity_IsbL-0700_RLatLon0.03_PT040H.grib2 2026-05-09 18:18 957K
20260509T12Z_MSC_CAPS_VerticalVelocity_IsbL-0850_RLatLon0.03_PT040H.grib2 2026-05-09 18:18 1.2M
20260509T12Z_MSC_CAPS_VerticalVelocity_IsbL-1000_RLatLon0.03_PT040H.grib2 2026-05-09 18:18 1.1M
20260509T12Z_MSC_CAPS_WindDir_AGL-10m_RLatLon0.03_PT040H.grib2 2026-05-09 18:18 2.3M
20260509T12Z_MSC_CAPS_WindDir_AGL-120m_RLatLon0.03_PT040H.grib2 2026-05-09 18:18 1.2M
20260509T12Z_MSC_CAPS_WindDir_AGL-40m_RLatLon0.03_PT040H.grib2 2026-05-09 18:18 1.3M
20260509T12Z_MSC_CAPS_WindDir_AGL-80m_RLatLon0.03_PT040H.grib2 2026-05-09 18:18 1.2M
20260509T12Z_MSC_CAPS_WindDir_IsbL-0050_RLatLon0.03_PT040H.grib2 2026-05-09 18:18 1.1M
20260509T12Z_MSC_CAPS_WindDir_IsbL-0100_RLatLon0.03_PT040H.grib2 2026-05-09 18:18 1.0M
20260509T12Z_MSC_CAPS_WindDir_IsbL-0150_RLatLon0.03_PT040H.grib2 2026-05-09 18:18 1.1M
20260509T12Z_MSC_CAPS_WindDir_IsbL-0175_RLatLon0.03_PT040H.grib2 2026-05-09 18:18 1.1M
20260509T12Z_MSC_CAPS_WindDir_IsbL-0200_RLatLon0.03_PT040H.grib2 2026-05-09 18:18 1.2M
20260509T12Z_MSC_CAPS_WindDir_IsbL-0225_RLatLon0.03_PT040H.grib2 2026-05-09 18:18 1.2M
20260509T12Z_MSC_CAPS_WindDir_IsbL-0250_RLatLon0.03_PT040H.grib2 2026-05-09 18:18 1.1M
20260509T12Z_MSC_CAPS_WindDir_IsbL-0275_RLatLon0.03_PT040H.grib2 2026-05-09 18:18 1.1M
20260509T12Z_MSC_CAPS_WindDir_IsbL-0300_RLatLon0.03_PT040H.grib2 2026-05-09 18:18 1.1M
20260509T12Z_MSC_CAPS_WindDir_IsbL-0350_RLatLon0.03_PT040H.grib2 2026-05-09 18:18 1.1M
20260509T12Z_MSC_CAPS_WindDir_IsbL-0400_RLatLon0.03_PT040H.grib2 2026-05-09 18:18 1.2M
20260509T12Z_MSC_CAPS_WindDir_IsbL-0450_RLatLon0.03_PT040H.grib2 2026-05-09 18:18 1.2M
20260509T12Z_MSC_CAPS_WindDir_IsbL-0500_RLatLon0.03_PT040H.grib2 2026-05-09 18:18 1.2M
20260509T12Z_MSC_CAPS_WindDir_IsbL-0550_RLatLon0.03_PT040H.grib2 2026-05-09 18:18 1.2M
20260509T12Z_MSC_CAPS_WindDir_IsbL-0600_RLatLon0.03_PT040H.grib2 2026-05-09 18:18 1.3M
20260509T12Z_MSC_CAPS_WindDir_IsbL-0650_RLatLon0.03_PT040H.grib2 2026-05-09 18:18 1.3M
20260509T12Z_MSC_CAPS_WindDir_IsbL-0700_RLatLon0.03_PT040H.grib2 2026-05-09 18:18 1.4M
20260509T12Z_MSC_CAPS_WindDir_IsbL-0750_RLatLon0.03_PT040H.grib2 2026-05-09 18:18 1.5M
20260509T12Z_MSC_CAPS_WindDir_IsbL-0800_RLatLon0.03_PT040H.grib2 2026-05-09 18:18 1.6M
20260509T12Z_MSC_CAPS_WindDir_IsbL-0850_RLatLon0.03_PT040H.grib2 2026-05-09 18:18 1.8M
20260509T12Z_MSC_CAPS_WindDir_IsbL-0875_RLatLon0.03_PT040H.grib2 2026-05-09 18:18 1.9M
20260509T12Z_MSC_CAPS_WindDir_IsbL-0900_RLatLon0.03_PT040H.grib2 2026-05-09 18:18 1.9M
20260509T12Z_MSC_CAPS_WindDir_IsbL-0925_RLatLon0.03_PT040H.grib2 2026-05-09 18:18 2.0M
20260509T12Z_MSC_CAPS_WindDir_IsbL-0950_RLatLon0.03_PT040H.grib2 2026-05-09 18:18 2.0M
20260509T12Z_MSC_CAPS_WindDir_IsbL-0970_RLatLon0.03_PT040H.grib2 2026-05-09 18:18 2.1M
20260509T12Z_MSC_CAPS_WindDir_IsbL-0985_RLatLon0.03_PT040H.grib2 2026-05-09 18:18 2.1M
20260509T12Z_MSC_CAPS_WindDir_IsbL-1000_RLatLon0.03_PT040H.grib2 2026-05-09 18:18 2.2M
20260509T12Z_MSC_CAPS_WindDir_IsbL-1015_RLatLon0.03_PT040H.grib2 2026-05-09 18:18 2.3M
20260509T12Z_MSC_CAPS_WindGust-Max_AGL-10m_RLatLon0.03_PT040H.grib2 2026-05-09 18:18 2.4M
20260509T12Z_MSC_CAPS_WindGust-Min_AGL-10m_RLatLon0.03_PT040H.grib2 2026-05-09 18:18 2.4M
20260509T12Z_MSC_CAPS_WindGust_AGL-10m_RLatLon0.03_PT040H.grib2 2026-05-09 18:18 2.5M
20260509T12Z_MSC_CAPS_WindSpeed_AGL-10m_RLatLon0.03_PT040H.grib2 2026-05-09 18:18 2.1M
20260509T12Z_MSC_CAPS_WindSpeed_AGL-120m_RLatLon0.03_PT040H.grib2 2026-05-09 18:18 1.2M
20260509T12Z_MSC_CAPS_WindSpeed_AGL-40m_RLatLon0.03_PT040H.grib2 2026-05-09 18:18 1.2M
20260509T12Z_MSC_CAPS_WindSpeed_AGL-80m_RLatLon0.03_PT040H.grib2 2026-05-09 18:18 1.2M
20260509T12Z_MSC_CAPS_WindSpeed_IsbL-0050_RLatLon0.03_PT040H.grib2 2026-05-09 18:18 1.1M
20260509T12Z_MSC_CAPS_WindSpeed_IsbL-0100_RLatLon0.03_PT040H.grib2 2026-05-09 18:18 1.1M
20260509T12Z_MSC_CAPS_WindSpeed_IsbL-0150_RLatLon0.03_PT040H.grib2 2026-05-09 18:18 1.0M
20260509T12Z_MSC_CAPS_WindSpeed_IsbL-0175_RLatLon0.03_PT040H.grib2 2026-05-09 18:18 1.1M
20260509T12Z_MSC_CAPS_WindSpeed_IsbL-0200_RLatLon0.03_PT040H.grib2 2026-05-09 18:18 1.1M
20260509T12Z_MSC_CAPS_WindSpeed_IsbL-0225_RLatLon0.03_PT040H.grib2 2026-05-09 18:18 951K
20260509T12Z_MSC_CAPS_WindSpeed_IsbL-0250_RLatLon0.03_PT040H.grib2 2026-05-09 18:18 1.0M
20260509T12Z_MSC_CAPS_WindSpeed_IsbL-0275_RLatLon0.03_PT040H.grib2 2026-05-09 18:18 1.0M
20260509T12Z_MSC_CAPS_WindSpeed_IsbL-0300_RLatLon0.03_PT040H.grib2 2026-05-09 18:18 1.0M
20260509T12Z_MSC_CAPS_WindSpeed_IsbL-0350_RLatLon0.03_PT040H.grib2 2026-05-09 18:18 1.0M
20260509T12Z_MSC_CAPS_WindSpeed_IsbL-0400_RLatLon0.03_PT040H.grib2 2026-05-09 18:18 1.0M
20260509T12Z_MSC_CAPS_WindSpeed_IsbL-0450_RLatLon0.03_PT040H.grib2 2026-05-09 18:18 1.4M
20260509T12Z_MSC_CAPS_WindSpeed_IsbL-0500_RLatLon0.03_PT040H.grib2 2026-05-09 18:18 1.5M
20260509T12Z_MSC_CAPS_WindSpeed_IsbL-0550_RLatLon0.03_PT040H.grib2 2026-05-09 18:18 1.4M
20260509T12Z_MSC_CAPS_WindSpeed_IsbL-0600_RLatLon0.03_PT040H.grib2 2026-05-09 18:18 1.4M
20260509T12Z_MSC_CAPS_WindSpeed_IsbL-0650_RLatLon0.03_PT040H.grib2 2026-05-09 18:18 1.5M
20260509T12Z_MSC_CAPS_WindSpeed_IsbL-0700_RLatLon0.03_PT040H.grib2 2026-05-09 18:18 1.5M
20260509T12Z_MSC_CAPS_WindSpeed_IsbL-0750_RLatLon0.03_PT040H.grib2 2026-05-09 18:18 1.6M
20260509T12Z_MSC_CAPS_WindSpeed_IsbL-0800_RLatLon0.03_PT040H.grib2 2026-05-09 18:18 1.6M
20260509T12Z_MSC_CAPS_WindSpeed_IsbL-0850_RLatLon0.03_PT040H.grib2 2026-05-09 18:18 1.7M
20260509T12Z_MSC_CAPS_WindSpeed_IsbL-0875_RLatLon0.03_PT040H.grib2 2026-05-09 18:18 1.7M
20260509T12Z_MSC_CAPS_WindSpeed_IsbL-0900_RLatLon0.03_PT040H.grib2 2026-05-09 18:18 1.8M
20260509T12Z_MSC_CAPS_WindSpeed_IsbL-0925_RLatLon0.03_PT040H.grib2 2026-05-09 18:18 1.8M
20260509T12Z_MSC_CAPS_WindSpeed_IsbL-0950_RLatLon0.03_PT040H.grib2 2026-05-09 18:18 2.0M
20260509T12Z_MSC_CAPS_WindSpeed_IsbL-0970_RLatLon0.03_PT040H.grib2 2026-05-09 18:18 2.0M
20260509T12Z_MSC_CAPS_WindSpeed_IsbL-0985_RLatLon0.03_PT040H.grib2 2026-05-09 18:18 2.0M
20260509T12Z_MSC_CAPS_WindSpeed_IsbL-1000_RLatLon0.03_PT040H.grib2 2026-05-09 18:18 2.1M
20260509T12Z_MSC_CAPS_WindSpeed_IsbL-1015_RLatLon0.03_PT040H.grib2 2026-05-09 18:18 2.1M
20260509T12Z_MSC_CAPS_WindU_AGL-10m_RLatLon0.03_PT040H.grib2 2026-05-09 18:18 1.9M
20260509T12Z_MSC_CAPS_WindU_AGL-120m_RLatLon0.03_PT040H.grib2 2026-05-09 18:18 888K
20260509T12Z_MSC_CAPS_WindU_AGL-40m_RLatLon0.03_PT040H.grib2 2026-05-09 18:18 919K
20260509T12Z_MSC_CAPS_WindU_AGL-80m_RLatLon0.03_PT040H.grib2 2026-05-09 18:18 893K
20260509T12Z_MSC_CAPS_WindU_IsbL-0050_RLatLon0.03_PT040H.grib2 2026-05-09 18:18 1.0M
20260509T12Z_MSC_CAPS_WindU_IsbL-0100_RLatLon0.03_PT040H.grib2 2026-05-09 18:18 773K
20260509T12Z_MSC_CAPS_WindU_IsbL-0150_RLatLon0.03_PT040H.grib2 2026-05-09 18:18 1.0M
20260509T12Z_MSC_CAPS_WindU_IsbL-0175_RLatLon0.03_PT040H.grib2 2026-05-09 18:18 709K
20260509T12Z_MSC_CAPS_WindU_IsbL-0200_RLatLon0.03_PT040H.grib2 2026-05-09 18:18 865K
20260509T12Z_MSC_CAPS_WindU_IsbL-0225_RLatLon0.03_PT040H.grib2 2026-05-09 18:18 894K
20260509T12Z_MSC_CAPS_WindU_IsbL-0250_RLatLon0.03_PT040H.grib2 2026-05-09 18:18 708K
20260509T12Z_MSC_CAPS_WindU_IsbL-0275_RLatLon0.03_PT040H.grib2 2026-05-09 18:18 719K
20260509T12Z_MSC_CAPS_WindU_IsbL-0300_RLatLon0.03_PT040H.grib2 2026-05-09 18:18 728K
20260509T12Z_MSC_CAPS_WindU_IsbL-0350_RLatLon0.03_PT040H.grib2 2026-05-09 18:18 736K
20260509T12Z_MSC_CAPS_WindU_IsbL-0400_RLatLon0.03_PT040H.grib2 2026-05-09 18:18 958K
20260509T12Z_MSC_CAPS_WindU_IsbL-0450_RLatLon0.03_PT040H.grib2 2026-05-09 18:18 1.0M
20260509T12Z_MSC_CAPS_WindU_IsbL-0500_RLatLon0.03_PT040H.grib2 2026-05-09 18:18 1.0M
20260509T12Z_MSC_CAPS_WindU_IsbL-0550_RLatLon0.03_PT040H.grib2 2026-05-09 18:18 935K
20260509T12Z_MSC_CAPS_WindU_IsbL-0600_RLatLon0.03_PT040H.grib2 2026-05-09 18:18 1.2M
20260509T12Z_MSC_CAPS_WindU_IsbL-0650_RLatLon0.03_PT040H.grib2 2026-05-09 18:18 1.0M
20260509T12Z_MSC_CAPS_WindU_IsbL-0700_RLatLon0.03_PT040H.grib2 2026-05-09 18:18 1.0M
20260509T12Z_MSC_CAPS_WindU_IsbL-0750_RLatLon0.03_PT040H.grib2 2026-05-09 18:18 1.0M
20260509T12Z_MSC_CAPS_WindU_IsbL-0800_RLatLon0.03_PT040H.grib2 2026-05-09 18:18 1.1M
20260509T12Z_MSC_CAPS_WindU_IsbL-0850_RLatLon0.03_PT040H.grib2 2026-05-09 18:18 1.3M
20260509T12Z_MSC_CAPS_WindU_IsbL-0875_RLatLon0.03_PT040H.grib2 2026-05-09 18:18 1.3M
20260509T12Z_MSC_CAPS_WindU_IsbL-0900_RLatLon0.03_PT040H.grib2 2026-05-09 18:18 1.4M
20260509T12Z_MSC_CAPS_WindU_IsbL-0925_RLatLon0.03_PT040H.grib2 2026-05-09 18:18 1.4M
20260509T12Z_MSC_CAPS_WindU_IsbL-0950_RLatLon0.03_PT040H.grib2 2026-05-09 18:18 1.4M
20260509T12Z_MSC_CAPS_WindU_IsbL-0970_RLatLon0.03_PT040H.grib2 2026-05-09 18:18 1.4M
20260509T12Z_MSC_CAPS_WindU_IsbL-0985_RLatLon0.03_PT040H.grib2 2026-05-09 18:18 1.4M
20260509T12Z_MSC_CAPS_WindU_IsbL-1000_RLatLon0.03_PT040H.grib2 2026-05-09 18:18 1.5M
20260509T12Z_MSC_CAPS_WindU_IsbL-1015_RLatLon0.03_PT040H.grib2 2026-05-09 18:18 1.9M
20260509T12Z_MSC_CAPS_WindV_AGL-10m_RLatLon0.03_PT040H.grib2 2026-05-09 18:18 1.9M
20260509T12Z_MSC_CAPS_WindV_AGL-120m_RLatLon0.03_PT040H.grib2 2026-05-09 18:18 1.1M
20260509T12Z_MSC_CAPS_WindV_AGL-40m_RLatLon0.03_PT040H.grib2 2026-05-09 18:18 1.2M
20260509T12Z_MSC_CAPS_WindV_AGL-80m_RLatLon0.03_PT040H.grib2 2026-05-09 18:18 1.1M
20260509T12Z_MSC_CAPS_WindV_IsbL-0050_RLatLon0.03_PT040H.grib2 2026-05-09 18:18 769K
20260509T12Z_MSC_CAPS_WindV_IsbL-0100_RLatLon0.03_PT040H.grib2 2026-05-09 18:18 775K
20260509T12Z_MSC_CAPS_WindV_IsbL-0150_RLatLon0.03_PT040H.grib2 2026-05-09 18:18 1.0M
20260509T12Z_MSC_CAPS_WindV_IsbL-0175_RLatLon0.03_PT040H.grib2 2026-05-09 18:18 919K
20260509T12Z_MSC_CAPS_WindV_IsbL-0200_RLatLon0.03_PT040H.grib2 2026-05-09 18:18 733K
20260509T12Z_MSC_CAPS_WindV_IsbL-0225_RLatLon0.03_PT040H.grib2 2026-05-09 18:18 887K
20260509T12Z_MSC_CAPS_WindV_IsbL-0250_RLatLon0.03_PT040H.grib2 2026-05-09 18:18 920K
20260509T12Z_MSC_CAPS_WindV_IsbL-0275_RLatLon0.03_PT040H.grib2 2026-05-09 18:18 930K
20260509T12Z_MSC_CAPS_WindV_IsbL-0300_RLatLon0.03_PT040H.grib2 2026-05-09 18:18 939K
20260509T12Z_MSC_CAPS_WindV_IsbL-0350_RLatLon0.03_PT040H.grib2 2026-05-09 18:18 949K
20260509T12Z_MSC_CAPS_WindV_IsbL-0400_RLatLon0.03_PT040H.grib2 2026-05-09 18:18 959K
20260509T12Z_MSC_CAPS_WindV_IsbL-0450_RLatLon0.03_PT040H.grib2 2026-05-09 18:18 1.0M
20260509T12Z_MSC_CAPS_WindV_IsbL-0500_RLatLon0.03_PT040H.grib2 2026-05-09 18:18 898K
20260509T12Z_MSC_CAPS_WindV_IsbL-0550_RLatLon0.03_PT040H.grib2 2026-05-09 18:18 930K
20260509T12Z_MSC_CAPS_WindV_IsbL-0600_RLatLon0.03_PT040H.grib2 2026-05-09 18:18 1.2M
20260509T12Z_MSC_CAPS_WindV_IsbL-0650_RLatLon0.03_PT040H.grib2 2026-05-09 18:18 1.2M
20260509T12Z_MSC_CAPS_WindV_IsbL-0700_RLatLon0.03_PT040H.grib2 2026-05-09 18:18 1.3M
20260509T12Z_MSC_CAPS_WindV_IsbL-0750_RLatLon0.03_PT040H.grib2 2026-05-09 18:18 1.3M
20260509T12Z_MSC_CAPS_WindV_IsbL-0800_RLatLon0.03_PT040H.grib2 2026-05-09 18:18 1.4M
20260509T12Z_MSC_CAPS_WindV_IsbL-0850_RLatLon0.03_PT040H.grib2 2026-05-09 18:18 1.5M
20260509T12Z_MSC_CAPS_WindV_IsbL-0875_RLatLon0.03_PT040H.grib2 2026-05-09 18:18 1.5M
20260509T12Z_MSC_CAPS_WindV_IsbL-0900_RLatLon0.03_PT040H.grib2 2026-05-09 18:18 1.6M
20260509T12Z_MSC_CAPS_WindV_IsbL-0925_RLatLon0.03_PT040H.grib2 2026-05-09 18:18 1.6M
20260509T12Z_MSC_CAPS_WindV_IsbL-0950_RLatLon0.03_PT040H.grib2 2026-05-09 18:18 1.7M
20260509T12Z_MSC_CAPS_WindV_IsbL-0970_RLatLon0.03_PT040H.grib2 2026-05-09 18:18 1.7M
20260509T12Z_MSC_CAPS_WindV_IsbL-0985_RLatLon0.03_PT040H.grib2 2026-05-09 18:18 1.9M
20260509T12Z_MSC_CAPS_WindV_IsbL-1000_RLatLon0.03_PT040H.grib2 2026-05-09 18:18 2.0M
20260509T12Z_MSC_CAPS_WindV_IsbL-1015_RLatLon0.03_PT040H.grib2 2026-05-09 18:18 1.9M